Location: Unspecified
(41.1850°N, 73.2650°W)
Time: 03:23:52
(UTC+00:00)

SL-08 R/B - Pass Details

Date: 21 March 2026
Orbit: 946 x 992 km, 83.0° (Epoch: 13 April)

Event Time Altitude Azimuth Distance (km) Brightness Sun altitude
Rises 10:15:59 0° 13° (NNE) 3,645 7.8 -8.1°
Reaches altitude 10° 10:20:57 10° 48° (NE) 2,705 7.8 -7.2°
Maximum altitude 10:22:34 11° 63° (ENE) 2,634 8.1 -6.9°
Drops below altitude 10° 10:24:10 10° 78° (ENE) 2,710 8.6 -6.6°
Sets 10:29:08 0° 113° (ESE) 3,663 8.7 -5.6°
